Simultaneous Nadir Overpasses (SNOs) Predictions

Prediction of SNOs between NOAA-15 and METOP-C Satellite Orbit:

Table of predicted SNOs for the next 14.0 days since TLE Epoch: 4/16/2020
Index Date (NOAA-15) Time (NOAA-15) Lat,Lon (NOAA-15) SZA (NOAA-15 ) Date (METOP-C) Time (METOP-C) Lat,Lon (METOP-C) SZA (METOP-C ) Distance(km) Time Diff (sec)
1 04/30/2020 03:22:44 -80.91, -15.27 112.20 04/30/2020 03:21:30 -80.92, -15.18 112.22 2.08 74
2 04/30/2020 04:13:13 80.92, 151.92 67.78 04/30/2020 04:12:11 80.91, 152.08 67.77 2.88 62
3 04/30/2020 05:03:46 -80.91, -40.69 112.24 04/30/2020 05:02:51 -80.91, -40.66 112.26 0.67 55
4 04/30/2020 05:54:15 80.92, 126.49 67.75 04/30/2020 05:53:32 80.91, 126.60 67.73 2.66 43
5 04/30/2020 06:44:48 -80.91, -65.76 112.24 04/30/2020 06:44:12 -80.92, -65.78 112.25 1.96 36
6 04/30/2020 07:35:17 80.92, 101.42 67.74 04/30/2020 07:34:53 80.92, 101.47 67.74 0.98 24
7 04/30/2020 08:25:51 -80.91, -91.18 112.28 04/30/2020 08:25:34 -80.92, -91.26 112.29 1.53 17
8 04/30/2020 09:16:20 80.92, 75.99 67.71 04/30/2020 09:16:15 80.91, 75.99 67.70 1.32 5
9 04/30/2020 10:06:54 -80.92,-116.60 112.31 04/30/2020 10:06:56 -80.91,-116.75 112.33 2.90 2
10 04/30/2020 10:57:22 80.91, 50.93 67.70 04/30/2020 10:57:36 80.92, 50.86 67.70 1.40 14
11 04/30/2020 11:47:57 -80.93,-142.03 112.34 04/30/2020 11:48:17 -80.92,-141.87 112.32 2.96 20
12 04/30/2020 12:38:25 80.92, 25.50 67.67 04/30/2020 12:38:58 80.91, 25.38 67.66 2.19 33
13 04/30/2020 13:28:59 -80.92,-167.09 112.35 04/30/2020 13:29:38 -80.93,-166.99 112.31 2.03 39
14 04/30/2020 14:19:27 80.91, 0.43 67.66 04/30/2020 14:20:19 80.93, 0.26 67.67 3.36 52
15 04/30/2020 15:10:02 -80.93, 167.49 112.38 04/30/2020 15:11:00 -80.92, 167.52 112.35 0.85 58
16 04/30/2020 16:00:30 80.92, -25.00 67.63 04/30/2020 16:01:40 80.94, -24.87 67.68 2.87 70




NCC Satellite Simultaneous Nadir Overpasses (SNOs) Prediction Service
